[[{"header":{"parameterUnit":"m.s-1","parameterCategory":1,"la1":30.2992,"la2":30.254,"lo1":-89.0895,"lo2":-89.0443,"dy":0.0025,"dx":0.0025,"nx":19,"ny":19,"refTime":"2026-04-19T09:00:00:Z","depth":0,"parameterNumber":2,"parameterNumberName":"U-component_of_WINDS"},"data":[0,0,0,-3.7338,-3.734,-3.7421,-3.7421,-3.7535,-3.7536,0,0,0,0,0,0,0,0,0,0,0,-3.7322,-3.7324,-3.7338,-3.7341,-3.7421,-3.7421,-3.7535,-3.7536,0,0,0,0,0,0,0,0,0,0,0,-3.7322,-3.7323,-3.7325,-3.7341,-3.7421,-3.7421,-3.7535,-3.747,0,0,0,0,0,0,0,0,0,0,-3.739,-3.7383,-3.7323,-3.7325,-3.7341,-3.7421,-3.7421,-3.7466,-3.7474,-3.7504,0,-3.7534,0,-3.7537,-3.7545,-3.7545,0,0,0,-3.7334,-3.7377,-3.7392,-3.7325,-3.7342,-3.7421,-3.7383,-3.747,-3.7479,-3.7514,-3.7536,-3.7539,-3.7539,-3.7546,-3.7546,-3.7746,-3.7748,0,0,-3.733,-3.7341,-3.7386,-3.7397,-3.7387,-3.738,-3.7385,-3.7475,-3.7499,-3.7536,-3.7542,-3.7541,-3.7547,-3.7548,-3.7745,-3.7747,0,0,0,-3.7321,-3.7338,-3.735,-3.7393,-3.7407,-3.7383,-3.7389,-3.7495,-3.7498,-3.7543,-3.7543,-3.7547,-3.7549,-3.7744,-3.7746,-3.7819,0,0,0,-3.7318,-3.7333,-3.7349,-3.7356,-3.7405,-3.7452,-3.7406,-3.7492,-3.7502,-3.7542,-3.7547,-3.755,-3.7742,-3.7745,-3.7814,-3.7852,0,0,0,-3.7314,-3.7332,-3.7347,-3.7357,-3.7392,-3.745,-3.7459,-3.7494,-3.7502,-3.7545,-3.755,-3.7742,-3.7744,-3.781,-3.7845,-3.791,0,0,0,-3.7313,-3.7409,-3.7348,-3.7455,-3.7391,-3.7495,-3.7458,-3.7534,-3.758,-3.7548,-3.7743,-3.7746,-3.7808,-3.784,-3.7905,-3.7967,-3.7994,0,0,-3.744,-3.7424,-3.7486,-3.7435,-3.7553,-3.7482,-3.7611,-3.7641,-3.7634,-3.7709,-3.7714,-3.7816,-3.7844,-3.7909,-3.8137,-3.8159,0,0,0,-3.753,-3.7575,-3.7604,-3.765,-3.7677,-3.7704,-3.7714,-3.7726,-3.7789,-3.7675,-3.7856,-3.7872,-3.7909,-3.7939,-3.7957,-3.7989,-3.7759,-3.7759,-3.7759,-3.7725,-3.7714,-3.7816,-3.7815,-3.7859,-3.787,-3.7906,-3.7923,-3.7895,-3.7939,-3.7961,-3.8101,-3.8136,-3.815,-3.8183,-3.7992,-3.7992,-3.7992,-3.7992,-3.7912,-3.7974,-3.7938,-3.8025,-3.8012,-3.8084,-3.8099,-3.8078,-3.8143,-3.8083,-3.8115,-3.8052,-3.8173,-3.8202,-3.7998,-3.7997,-3.7996,-3.7996,-3.7995,-3.8039,-3.8067,-3.8081,-3.8148,-3.82,-3.8195,-3.826,-3.8245,-3.823,-3.8262,-3.8285,-3.8284,-3.8282,-3.8274,-3.8275,-3.8275,-3.8276,-3.8276,-3.8276,-3.8166,-3.818,-3.8238,-3.8277,-3.8306,-3.8341,-3.8354,-3.8382,-3.8408,-3.8391,-3.8392,-3.8361,-3.8187,-3.8145,-3.8284,-3.8283,-3.8282,-3.8281,-3.828,-3.8361,-3.8315,-3.8405,-3.8434,-3.848,-3.8534,-3.8514,-3.8572,-3.8592,-3.8625,-3.8588,-3.8462,-3.8444,-3.8429,-3.8394,-3.8589,-3.8589,-3.8589,-3.859,-3.847,-3.846,-3.8549,-3.8597,-3.8642,-3.8634,-3.8736,-3.8748,-3.8753,-3.8765,-3.8734,-3.8685,-3.8671,-3.8662,-3.8643,-3.861,-3.8855,-3.8855,-3.8856,-3.859,-3.8584,-3.8674,-3.868,-3.8715,-3.8746,-3.8842,-3.8898,-3.8893,-3.8866,-3.8774,-3.8763,-3.8684,-3.8659,-3.8631,-3.8601,-3.854,0,0]},{"header":{"parameterUnit":"m.s-1","parameterCategory":1,"la1":30.2992,"la2":30.254,"lo1":-89.0895,"lo2":-89.0443,"dy":0.0025,"dx":0.0025,"nx":19,"ny":19,"refTime":"2026-04-19T09:00:00:Z","depth":0,"parameterNumber":3,"parameterNumberName":"V-component_of_WINDS"},"data":[0,0,0,-7.2257,-7.226,-7.236,-7.236,-7.2504,-7.2505,0,0,0,0,0,0,0,0,0,0,0,-7.2241,-7.2242,-7.2257,-7.226,-7.236,-7.236,-7.2504,-7.2505,0,0,0,0,0,0,0,0,0,0,0,-7.224,-7.2242,-7.2244,-7.2261,-7.236,-7.236,-7.2503,-7.2421,0,0,0,0,0,0,0,0,0,0,-7.2321,-7.2319,-7.2241,-7.2244,-7.2261,-7.236,-7.236,-7.2417,-7.2427,-7.2467,0,-7.2509,0,-7.251,-7.2516,-7.2517,0,0,0,-7.2249,-7.2312,-7.2327,-7.2244,-7.2262,-7.236,-7.2312,-7.2422,-7.2433,-7.2479,-7.251,-7.2515,-7.2512,-7.2517,-7.2518,-7.2793,-7.2795,0,0,-7.2244,-7.2265,-7.232,-7.2335,-7.2324,-7.2309,-7.2315,-7.2428,-7.2462,-7.2511,-7.2518,-7.2515,-7.2519,-7.252,-7.2791,-7.2793,0,0,0,-7.2235,-7.2261,-7.2274,-7.233,-7.2347,-7.2312,-7.2319,-7.2457,-7.246,-7.252,-7.2516,-7.2519,-7.2521,-7.2789,-7.2792,-7.2902,0,0,0,-7.2231,-7.2256,-7.2272,-7.2286,-7.2345,-7.2404,-7.2346,-7.2452,-7.2464,-7.2516,-7.252,-7.2523,-7.2787,-7.2791,-7.2895,-7.295,0,0,0,-7.223,-7.2256,-7.2275,-7.2286,-7.2331,-7.2402,-7.241,-7.2454,-7.2463,-7.2517,-7.2524,-7.2786,-7.279,-7.2889,-7.294,-7.303,0,0,0,-7.2233,-7.2369,-7.2277,-7.2428,-7.233,-7.247,-7.2409,-7.2511,-7.2571,-7.252,-7.2788,-7.2792,-7.2887,-7.2933,-7.3023,-7.311,-7.3149,0,0,-7.2416,-7.2392,-7.2479,-7.24,-7.2562,-7.2453,-7.263,-7.2663,-7.2647,-7.2744,-7.2751,-7.2897,-7.2939,-7.3029,-7.3355,-7.3386,0,0,0,-7.2544,-7.2608,-7.2646,-7.2706,-7.2737,-7.2767,-7.2772,-7.2784,-7.2866,-7.2703,-7.2953,-7.2977,-7.3029,-7.307,-7.3096,-7.3139,-7.2811,-7.2811,-7.2811,-7.2833,-7.2809,-7.2952,-7.294,-7.2998,-7.3003,-7.3047,-7.3064,-7.3019,-7.3079,-7.3108,-7.3309,-7.3358,-7.3377,-7.3422,-7.3151,-7.3152,-7.3152,-7.3152,-7.3101,-7.3187,-7.3127,-7.3245,-7.3217,-7.3314,-7.3323,-7.3288,-7.3373,-7.3285,-7.3329,-7.3236,-7.3412,-7.345,-7.316,-7.3159,-7.3158,-7.3157,-7.3157,-7.3288,-7.3325,-7.334,-7.3425,-7.3493,-7.3474,-7.356,-7.353,-7.3502,-7.3546,-7.3574,-7.3572,-7.3566,-7.3561,-7.3562,-7.3563,-7.3563,-7.3564,-7.3564,-7.3477,-7.349,-7.3568,-7.3614,-7.3649,-7.3691,-7.3697,-7.373,-7.3758,-7.3729,-7.3729,-7.3679,-7.3434,-7.3373,-7.3575,-7.3573,-7.3572,-7.3571,-7.357,-7.3758,-7.369,-7.381,-7.3846,-7.3897,-7.3967,-7.3928,-7.3998,-7.402,-7.4063,-7.4004,-7.3827,-7.3799,-7.3778,-7.3728,-7.4009,-7.4009,-7.4009,-7.4009,-7.3916,-7.39,-7.4017,-7.4076,-7.413,-7.4109,-7.4243,-7.4249,-7.4243,-7.4255,-7.421,-7.414,-7.412,-7.4104,-7.4076,-7.4028,-7.438,-7.438,-7.4381,-7.4088,-7.4076,-7.4198,-7.4195,-7.4233,-7.4266,-7.4391,-7.4459,-7.4438,-7.4395,-7.4264,-7.4248,-7.4135,-7.41,-7.4054,-7.4011,-7.3923,0,0]}]]